Regional Weather Roundup
Issued by NWS

Home | Current Version | Previous Version | Text Only | Print | Product List | Glossary Off
Versions: 1 2 3 4 5 6 7 8 9 10 11 12 13 14 15 16 17 18 19 20 21 22 23 24 25 26 27 28 29 30 31 32 33 34 35 36 37 38 39 40 41 42 43 44 45 46 47 48 49 50

141
ASUS43 KIND 262309
RWRIN

WEATHER ROUNDUP FOR INDIANA
NATIONAL WEATHER SERVICE INDIANAPOLIS IN
700 PM EDT FRI MAY 26 2017

NOTE: "FAIR" INDICATES FEW OR NO CLOUDS BELOW 12,000 FEET WITH NO
SIGNIFICANT WEATHER AND/OR OBSTRUCTIONS TO VISIBILITY.

* - STATION DOES NOT REPORT WEATHER SUCH AS PRECIPITATION OR FOG.

+ - STATION NOT QUALITY CONTROLLED BY THE NATIONAL WEATHER SERVICE.
    USE DATA WITH CAUTION...ESPECIALLY DEWPOINT AND RELATIVE
    HUMIDITY OBSERVATIONS.

INZ001>003-010>013-019-020-270000-
NORTHWEST INDIANA

CITY           SKY/WX    TMP DP  RH WIND       PRES   REMARKS
GARY /AIRPORT/ LGT RAIN  59  55  88 E12       29.79F
KNOX *+        CLOUDY    63  52  67 N8        29.83R
LA PORTE +     TSTM      64  60  88 SE10      29.82S
MICHIGAN CITY+ RAIN      63  61  94 CALM      29.82F
MONTICELLO +   LGT RAIN  70  60  70 CALM      29.78F
RENSSELAER +   TSTM      66  61  82 E14       29.74F
VALPARAISO     LGT RAIN  65  62  90 NE7       29.81F FOG

$$

LMZ046-743>745-270000-
SOUTHERN LAKE MICHIGAN

STATION/POSITION TIME  TEMP    WIND        PRES    WAVE
                       AIR SEA DIR/SP/G            HT
                 (UTC) (F)     (DEG/KT/KT) (MB)    (FT)
BURNS HARBOR     2228   58      70/ 13/ 20 1009.8S
MICHIGAN CITY    2240   58      50/ 18/ 18   N/A
5NW MICH CITY    2300   55 53   60/ 10/ 12   N/A     1

$$

INZ004-005-014>016-021>024-270000-
NORTH CENTRAL INDIANA

CITY           SKY/WX    TMP DP  RH WIND       PRES   REMARKS
ELKHART        MOSUNNY   68  55  64 SE6       29.83F
GOSHEN         LGT RAIN  69  55  60 S6        29.84S
LOGANSPORT +   LGT RAIN  70  61  73 E8        29.81S
PERU/GRISSOM   LGT RAIN  72  61  68 E8        29.79F
ROCHESTER +    CLOUDY    72  59  64 SE6       29.83S
SOUTH BEND     LGT RAIN  66  57  72 SW5       29.86R
WARSAW +       CLOUDY    68  57  68 SE5       29.84S

$$

INZ006>009-017-018-025>027-270000-
NORTHEAST INDIANA

CITY           SKY/WX    TMP DP  RH WIND       PRES   REMARKS
ANGOLA *+      SUNNY     70  63  78 S5        29.86S
AUBURN +       SUNNY     70  52  52 CALM      29.86F
FORT WAYNE     PTSUNNY   71  56  58 E5        29.84F
HUNTINGTON +   MOSUNNY  N/A N/A N/A SE5       29.84S
KENDALLVILLE + MOSUNNY   70  55  60 SE6       29.85F

$$

INZ028-029-035-036-043>045-051>053-270000-
WEST CENTRAL INDIANA

CITY           SKY/WX    TMP DP  RH WIND       PRES   REMARKS
CRAWFORDSVL +  CLOUDY    73  62  70 SE9       29.78F
GREENCASTLE +  CLOUDY    75  61  60 S9        29.80R
LAFAYETTE      CLOUDY    73  61  65 E9        29.75F
TERRE HAUTE    CLOUDY    77  59  53 S13       29.77F

$$

INZ030>032-037>040-046>048-054>057-064-065-270000-
CENTRAL INDIANA

CITY           SKY/WX    TMP DP  RH WIND       PRES   REMARKS
CP ATTERBURY + CLOUDY    77  63  61 S7G16     29.82F
COLUMBUS       PTSUNNY   75  59  57 S12       29.82S
FISHERS *+     PTSUNNY   73  64  73 S13       29.81F
FRANKFORT +    PTSUNNY   76  64  66 S5        29.82R
GREENWOOD *+   PTSUNNY   76  60  58 S9G16     29.82F
INDIANAPOLIS   CLOUDY    75  62  64 SE8       29.81S
-EAGLE CREEK   CLOUDY    76  60  57 SE8       29.81S
KOKOMO +       PTSUNNY   74  62  66 E8        29.81F
MARION +       MOSUNNY   73  59  60 SE7       29.83S
MT COMFORT *+  MOSUNNY   73  61  64 S9        29.83S
SHELBYVILLE    PTSUNNY   78  60  53 S13       29.81F
ZIONSVILLE +   MOSUNNY   74  61  64 S10       29.81S

$$

INZ033-034-041-042-049-050-058-059-270000-
EAST CENTRAL INDIANA

CITY           SKY/WX    TMP DP  RH WIND       PRES   REMARKS
MUNCIE         SUNNY     76  57  51 S10       29.82F
RICHMOND +     CLOUDY    73  59  60 S9        29.86F

$$

INZ060-061-067>069-081>083-085>088-270000-
SOUTHWEST INDIANA

CITY           SKY/WX    TMP DP  RH WIND       PRES   REMARKS
EVANSVILLE     CLOUDY    82  57  42 S10       29.80R
HUNTINGBURG *+ PTSUNNY   80  60  50 S8        29.81S
WASHINGTON +   PTSUNNY   79  58  48 S8        29.79F

$$

INZ062-063-066-070>080-084-089>092-270000-
SOUTH CENTRAL AND SOUTHEAST INDIANA

CITY           SKY/WX    TMP DP  RH WIND       PRES   REMARKS
BEDFORD +      CLOUDY    79  57  47 S8        29.81S
BLOOMINGTON    CLOUDY    77  63  61 S8        29.81S
MADISON *+     CLOUDY    77  61  57 S6        29.86S
NORTH VERNON + CLOUDY    75  61  60 S5        29.85R
SEYMOUR +      CLOUDY    79  63  57 SE8       29.82S

$$





USA.gov is the U.S. government's official web portal to all federal, state and local government web resources and services.